This demonstration page uses our WeatherBlox Daily Observations layout. Learn more.

Left ArrowRight Arrow

34.74481, -87.66753

Hourly Observations for May 20, 2017

Temp ( °F °C ) Dew Point ( °F °C ) Humidity (%) Winds ( mph kmh ) Pressure ( in mb ) Visibility ( mi km ) Precip ( " mm )
12:53 am 00:53 Clear 73 22.8 68 20 84 84 ESE 3 6 29.98 1015 10 16 0.00 0.00
1:53 am 01:53 Cloudy 73 22.8 67 19.4 81 81 Calm 29.98 1015 10 16 0.00 0.00
2:53 am 02:53 Cloudy 74 23.3 67 19.4 79 79 SE 3 6 29.98 1015 10 16 0.00 0.00
3:53 am 03:53 Partly Cloudy 73 22.8 64 17.8 74 74 ESE 6 9 29.97 1015 10 16 0.00 0.00
4:53 am 04:53 Mostly Cloudy 72 22.2 65 18.3 79 79 SSE 5 7 29.98 1015 10 16 0.00 0.00
5:53 am 05:53 Sunny 73 22.8 64 17.8 74 74 SE 6 9 29.99 1016 10 16 0.00 0.00
6:53 am 06:53 Sunny 73 22.8 64 17.8 74 74 SE 5 7 30.00 1016 10 16 0.00 0.00
7:53 am 07:53 Sunny 76 24.4 65 18.3 69 69 SE 7 11 30.01 1016 10 16 0.00 0.00
8:53 am 08:53 Sunny 80 26.7 66 18.9 62 62 S 7 11 30.02 1017 10 16 0.00 0.00
9:53 am 09:53 Partly Cloudy 82 27.8 67 19.4 60 60 S 8 13 30.03 1017 10 16 0.00 0.00
10:53 am 10:53 Cloudy 83 28.3 68 20 61 61 SSW 13 20 30.04 1017 10 16 0.00 0.00
11:53 am 11:53 Sunny 86 30 68 20 55 55 SSW 13 20 30.01 1016 10 16 0.00 0.00
12:53 pm 12:53 Partly Cloudy 84 28.9 69 20.6 61 61 SSE 12 19 29.99 1016 10 16 0.00 0.00
1:53 pm 13:53 Partly Cloudy with Light Rain 85 29.4 70 21.1 61 61 S 8 13 29.95 1014 5 8 0.01 0.25
2:09 pm 14:09 Mostly Cloudy with Nearby Thunderstorms 83 28.3 72 22.2 70 70 S 9 15 29.94 1014 10 16 0.00 0.03
2:31 pm 14:31 Mostly Cloudy with Thunderstorms 83 28.3 71 21.7 67 67 WSW 12 19 29.94 1014 10 16 0.00 0.03
2:45 pm 14:45 Mostly Cloudy with Nearby Thunderstorms 77 25 72 22.2 85 85 W 12 19 29.94 1014 3 5 0.06 1.52
2:53 pm 14:53 Cloudy with Nearby Thunderstorms 75 23.9 71 21.7 88 88 WNW 12 19 29.95 1014 2 3 0.17 4.32
3:03 pm 15:03 Mostly Cloudy with Nearby Thunderstorms 75 23.9 71 21.7 88 88 WNW 12 19 29.94 1014 10 16 0.00 0.03
3:36 pm 15:36 Mostly Cloudy with Thunderstorms 76 24.4 71 21.7 85 85 W 15 24 29.94 1014 10 16 0.00 0.03
3:53 pm 15:53 Cloudy with Thunderstorms 74 23.3 68 20 82 82 SW 6 9 29.96 1015 10 16 0.00 0.03
4:31 pm 16:31 Mostly Cloudy with Nearby Thunderstorms 73 22.8 68 20 84 84 W 6 9 29.94 1014 10 16 0.02 0.51
4:53 pm 16:53 Mostly Cloudy with Nearby Thunderstorms 73 22.8 68 20 84 84 S 3 6 29.98 1015 10 16 0.02 0.51
5:13 pm 17:13 Cloudy with Nearby Thunderstorms 72 22.2 69 20.6 91 91 S 7 11 29.97 1015 8 13 0.03 0.76
5:39 pm 17:39 Mostly Cloudy with Light Rain 72 22.2 68 20 87 87 SSE 9 15 30.00 1016 9 14 0.09 2.29
5:46 pm 17:46 Mostly Cloudy with Light Rain 72 22.2 68 20 87 87 S 9 15 30.00 1016 10 16 0.10 2.54
5:53 pm 17:53 Mostly Cloudy with Light Rain 72 22.2 68 20 87 87 S 8 13 30.01 1016 10 16 0.10 2.54
6:06 pm 18:06 Mostly Cloudy with Thunderstorms 72 22.2 68 20 87 87 S 13 20 30.00 1016 8 13 0.02 0.51
6:24 pm 18:24 Cloudy with Rain 71 21.7 68 20 90 90 S 9 15 30.00 1016 3 5 0.11 2.79
6:45 pm 18:45 Cloudy with Thunderstorms 70 21.1 67 19.4 90 90 S 8 13 30.00 1016 5 8 0.18 4.57
6:53 pm 18:53 Cloudy with Thunderstorms 70 21.1 67 19.4 90 90 S 8 13 30.01 1016 6 10 0.20 5.08
7:00 pm 19:00 Cloudy with Rain 70 21.1 67 19.4 90 90 S 7 11 30.00 1016 6 10 0.02 0.51
7:53 pm 19:53 Mostly Clear with Light Rain 69 20.6 67 19.4 93 93 E 9 15 29.93 1014 10 16 0.10 2.54
8:50 pm 20:50 Partly Cloudy 70 21 66 19 88 88 WSW 12 19 30.00 1016 10 16 0.01 0.25
8:53 pm 20:53 Mostly Cloudy 70 21.1 67 19.4 90 90 SW 7 11 30.02 1017 10 16 0.01 0.25
9:00 pm 21:00 Mostly Cloudy 70 21.1 67 19.4 90 90 SW 8 13 30.03 1017 10 16 0.00 0.00
9:35 pm 21:35 Partly Cloudy 70 21.1 66 18.9 87 87 SSE 6 9 30.00 1016 10 16 0.00 0.00
9:53 pm 21:53 Clear 69 20.6 66 18.9 90 90 ESE 6 9 30.02 1017 10 16 0.00 0.00
10:53 pm 22:53 Clear 69 20.6 65 18.3 87 87 SE 5 7 30.04 1017 10 16 0.00 0.00
11:53 pm 23:53 Clear 69 20.6 65 18.3 87 87 SE 6 9 30.05 1018 10 16 0.00 0.00

Powered by AerisWeather